Weather History for Nassau Airport, Bahamas

Change the Weather History Date:

Wednesday, September 4, 2013

  Actual Average Record
Temperature  
Mean Temperature 84 °F -  
Max Temperature 90 °F 88 °F - ()
Min Temperature 78 °F 74 °F - ()
Cooling Degree Days 19    
Growing Degree Days 34 (Base 50)    
Moisture  
Dew Point 76 °F    
Average Humidity 77    
Maximum Humidity 89    
Minimum Humidity 59    
Precipitation  
Precipitation 0.08 in 0.23 in - ()
Sea Level Pressure  
Sea Level Pressure 30.01 in    
Wind  
Wind Speed 4 mph ()    
Max Wind Speed 9 mph    
Max Gust Speed -    
Visibility 6.7 miles    
Events Rain , Tornado    
T = Trace of Precipitation, MM = Missing Value Source: Averaged Metar Reports

Daily Weather History Graph

Daily Weather History Graph

Search for Another Location

Airport:

Trip Planner

Search our weather history database for the weather conditions in past years. The results will help you decide how hot, cold, wet, or windy it might be!

Date:

Astronomy

Sep. 04, 2013 Rise Set
Actual Time 6:51 AM EDT 7:25 PM EDT
Civil Twilight 6:28 AM EDT 7:48 PM EDT
Nautical Twilight 6:01 AM EDT 8:15 PM EDT
Astronomical Twilight 5:34 AM EDT 8:42 PM EDT
Moon 6:01 AM EDT (9/4) 6:47 PM EDT (9/4)
Length of Visible Light 13h 19m
Length of Day
12h 33m
Waning Crescent, 1% of the Moon is Illuminated
Sep 4
Waning Crescent
Sep 5
New
Sep 12
First Quarter
Sep 19
Full
Sep 26
Last Quarter

Hourly Weather History & Observations

Time (EDT) Temp. Heat Index Dew Point Humidity Pressure Visibility Wind Dir Wind Speed Gust Speed Precip Events Conditions
12:00 AM 82.4 °F 89.5 °F 75.2 °F 79% 30.03 in 6.2 mi ESE 3.5 mph - N/A   Partly Cloudy
1:00 AM 80.6 °F 86.2 °F 75.2 °F 84% 30.01 in 6.2 mi Variable 1.2 mph - N/A   Partly Cloudy
2:00 AM 82 °F - 78 °F 86% 30.00 in 9 mi ESE 4.6 mph - -   Scattered Clouds
2:00 AM 82.4 °F 92.4 °F 78.8 °F 89% 30.00 in 6.2 mi ESE 4.6 mph - N/A   Partly Cloudy
3:00 AM 78.8 °F - 75.2 °F 89% 29.98 in 6.2 mi East 3.5 mph - N/A   Partly Cloudy
4:00 AM 78.8 °F - 75.2 °F 89% 29.96 in 6.2 mi East 3.5 mph - N/A   Scattered Clouds
5:00 AM 82 °F - 78 °F 83% 29.96 in 9 mi East 4.6 mph - -   Partly Cloudy
5:00 AM 82.4 °F 90.9 °F 77.0 °F 84% 29.96 in 6.2 mi East 4.6 mph - N/A   Scattered Clouds
6:00 AM 82.4 °F 89.5 °F 75.2 °F 79% 29.98 in 6.2 mi ESE 4.6 mph - N/A   Scattered Clouds
7:00 AM 82.4 °F 89.5 °F 75.2 °F 79% 29.99 in 6.2 mi East 3.5 mph - N/A   Mostly Cloudy
8:00 AM 82 °F - 78 °F 83% 30.01 in 9 mi East 4.6 mph - -   Scattered Clouds
8:00 AM 82.4 °F 90.9 °F 77.0 °F 84% 30.00 in 6.2 mi East 4.6 mph - N/A   Mostly Cloudy
9:00 AM 80.6 °F 86.2 °F 75.2 °F 84% 30.02 in 6.2 mi ESE 3.5 mph - N/A Rain Light Rain Showers
10:00 AM 84.2 °F 92.3 °F 75.2 °F 74% 30.04 in 6.2 mi ESE 6.9 mph - N/A   Mostly Cloudy
11:00 AM 87 °F - 76 °F 64% 30.05 in 9 mi ESE 6.9 mph - -   Partly Cloudy
12:00 PM 86.0 °F 95.1 °F 75.2 °F 70% 30.05 in 6.2 mi ESE 8.1 mph - N/A   Mostly Cloudy
1:00 PM 86.0 °F 95.1 °F 75.2 °F 70% 30.05 in 6.2 mi ESE 9.2 mph - N/A   Mostly Cloudy
2:00 PM 89 °F - 78 °F 62% 30.03 in 9 mi ESE 6.9 mph - -   Partly Cloudy
2:00 PM 89.6 °F 102.2 °F 77.0 °F 66% 30.03 in 6.2 mi ESE 6.9 mph - N/A   Mostly Cloudy
3:00 PM 89.6 °F 98.2 °F 73.4 °F 59% 30.01 in 6.2 mi ESE 5.8 mph - N/A Tornado Funnel Cloud
4:00 PM 91.4 °F 102.5 °F 75.2 °F 59% 30.00 in 6.2 mi ENE 6.9 mph - N/A   Mostly Cloudy
5:00 PM 88 °F - 76 °F 60% 30.00 in 12 mi ESE 6.9 mph - -   Mostly Cloudy
5:00 PM 87.8 °F 97.6 °F 75.2 °F 66% 30.00 in 6.2 mi ESE 6.9 mph - N/A   Mostly Cloudy
5:10 PM 87.8 °F 97.6 °F 75.2 °F 66% 30.01 in 0.5 mi East 8.1 mph - N/A Rain Heavy Rain Showers
5:25 PM 78.8 °F - 73.4 °F 83% 30.00 in 6.2 mi ESE 8.1 mph - N/A Rain Light Rain Showers
6:00 PM 80.6 °F 86.2 °F 75.2 °F 84% 30.01 in 6.2 mi East 3.5 mph - N/A   Mostly Cloudy
7:00 PM 82.4 °F 90.9 °F 77.0 °F 84% 30.01 in 6.2 mi East 3.5 mph - N/A   Mostly Cloudy
8:00 PM 83 °F - 77 °F 78% 30.02 in 9 mi ENE 3.5 mph - -   Partly Cloudy
8:00 PM 84.2 °F 94.1 °F 77.0 °F 79% 30.02 in 6.2 mi ENE 3.5 mph - N/A   Mostly Cloudy
9:00 PM 80.6 °F 87.1 °F 77.0 °F 89% 30.04 in 6.2 mi East 5.8 mph - N/A   Mostly Cloudy
10:00 PM 78.8 °F - 73.4 °F 83% 30.07 in 6.2 mi Variable 2.3 mph - N/A   Mostly Cloudy
11:00 PM 82.4 °F 90.9 °F 77.0 °F 84% 30.08 in - North - - N/A   Mostly Cloudy